Location: Franzen
(48.6167°N, 15.3833°E)
Time: 01:42:03
(UTC+00:00)

Transit 2A - Pass Details

Date: 07 August 2021
Orbit: 594 x 964 km, 66.7° (Epoch: 27 September)

Event Time Altitude Azimuth Distance (km) Brightness Sun altitude
Rises 10:29:51 0° 327° (NNW) 3,173 8.9 56.9°
Reaches altitude 10° 10:32:32 10° 340° (NNW) 2,312 8.3 57.0°
Maximum altitude 10:36:58 26° 37° (NE) 1,565 7.7 57.2°
Drops below altitude 10° 10:41:46 10° 93° (E) 2,513 8.9 57.3°
Sets 10:44:47 0° 106° (ESE) 3,507 9.6 57.4°
